Weather History for Dayton, OH

Change the Weather History Date:

Friday, March 8, 2013

  Actual Average Record
Temperature  
Mean Temperature 32 °F 37 °F  
Max Temperature 40 °F 46 °F 77 °F (1974)
Min Temperature 23 °F 29 °F 1 °F (1960)
Degree Days  
Heating Degree Days 33 28  
Month to date heating degree days 274 231  
Since 1 July heating degree days 4324 4506  
Cooling Degree Days 0 0  
Month to date cooling degree days 0 0  
Year to date cooling degree days 0 0  
Moisture  
Dew Point 22 °F    
Average Humidity 66    
Maximum Humidity 81    
Minimum Humidity 50    
Precipitation  
Precipitation 0.00 in 0.10 in 0.71 in (1919)
Month to date precipitation 0.75 0.73  
Year to date precipitation 5.14 5.68  
Snow  
Snow 0.00 in 0.10 in 10.30 in (2008)
Month to date snowfall 5.3 1.2  
Since 1 July snowfall 27.0 20.5  
Snow Depth T in    
Sea Level Pressure  
Sea Level Pressure 30.45 in    
Wind  
Wind Speed 5 mph (NNE)    
Max Wind Speed 10 mph    
Max Gust Speed 15 mph    
Visibility 10 miles    
Events      
T = Trace of Precipitation, MM = Missing Value Source: NWS Daily Summary

Daily Weather History Graph

Daily Weather History Graph

Search for Another Location

Airport:

Trip Planner

Search our weather history database for the weather conditions in past years. The results will help you decide how hot, cold, wet, or windy it might be!

Date:

Astronomy

Mar. 08, 2013 Rise Set
Actual Time 6:59 AM EST 6:36 PM EST
Civil Twilight 6:32 AM EST 7:03 PM EST
Nautical Twilight 6:00 AM EST 7:35 PM EST
Astronomical Twilight 5:29 AM EST 8:06 PM EST
Moon 4:42 AM EST (3/8) 3:30 PM EST (3/8)
Length of Visible Light 12h 31m
Length of Day
11h 37m
Waning Crescent, 12% of the Moon is Illuminated
Mar 8
Waning Crescent
Mar 11
New
Mar 19
First Quarter
Mar 27
Full
Apr 3
Last Quarter

Hourly Weather History & Observations

Time (EST) Temp. Windchill Dew Point Humidity Pressure Visibility Wind Dir Wind Speed Gust Speed Precip Events Conditions
12:56 AM 30.0 °F 25.2 °F 23.0 °F 75% 30.40 in 10.0 mi NW 4.6 mph - N/A   Clear
1:56 AM 27.0 °F 20.5 °F 21.0 °F 78% 30.41 in 10.0 mi NNW 5.8 mph - N/A   Clear
2:56 AM 27.0 °F 21.6 °F 21.0 °F 78% 30.41 in 10.0 mi NNW 4.6 mph - N/A   Clear
3:56 AM 26.1 °F 20.5 °F 19.9 °F 78% 30.42 in 10.0 mi NNW 4.6 mph - N/A   Clear
4:56 AM 25.0 °F 18.1 °F 18.0 °F 75% 30.44 in 10.0 mi North 5.8 mph - N/A   Clear
5:56 AM 25.0 °F 19.3 °F 19.0 °F 78% 30.45 in 10.0 mi North 4.6 mph - N/A   Clear
6:56 AM 24.1 °F - 19.9 °F 84% 30.48 in 10.0 mi Calm Calm - N/A   Clear
7:56 AM 26.1 °F 21.9 °F 21.0 °F 81% 30.50 in 9.0 mi NNW 3.5 mph - N/A   Clear
8:56 AM 30.9 °F 24.3 °F 23.0 °F 72% 30.48 in 10.0 mi NE 6.9 mph - N/A   Clear
9:56 AM 34.0 °F 28.0 °F 21.9 °F 61% 30.50 in 10.0 mi NE 6.9 mph - N/A   Clear
10:56 AM 35.1 °F 28.6 °F 19.9 °F 54% 30.51 in 10.0 mi NNE 8.1 mph - N/A   Partly Cloudy
11:56 AM 37.0 °F 30.4 °F 21.0 °F 52% 30.50 in 10.0 mi NNE 9.2 mph - N/A   Partly Cloudy
12:56 PM 37.0 °F 29.8 °F 21.0 °F 52% 30.49 in 10.0 mi North 10.4 mph - N/A   Partly Cloudy
1:56 PM 37.9 °F 32.1 °F 23.0 °F 55% 30.47 in 10.0 mi North 8.1 mph - N/A   Partly Cloudy
2:56 PM 39.0 °F 35.7 °F 23.0 °F 53% 30.47 in 10.0 mi NNE 4.6 mph - N/A   Partly Cloudy
3:56 PM 39.0 °F 34.8 °F 24.1 °F 55% 30.45 in 10.0 mi Variable 5.8 mph - N/A   Partly Cloudy
4:56 PM 39.9 °F 35.1 °F 25.0 °F 55% 30.44 in 10.0 mi NE 6.9 mph - N/A   Partly Cloudy
5:56 PM 37.9 °F 34.4 °F 25.0 °F 60% 30.43 in 10.0 mi ENE 4.6 mph - N/A   Partly Cloudy
6:56 PM 34.0 °F 28.8 °F 25.0 °F 70% 30.44 in 10.0 mi NNE 5.8 mph - N/A   Partly Cloudy
7:56 PM 32.0 °F 27.5 °F 24.1 °F 73% 30.45 in 10.0 mi North 4.6 mph - N/A   Clear
8:56 PM 32.0 °F - 24.1 °F 73% 30.44 in 10.0 mi Calm Calm - N/A   Clear
9:56 PM 30.9 °F - 23.0 °F 72% 30.45 in 10.0 mi Calm Calm - N/A   Clear
10:56 PM 28.0 °F 21.7 °F 23.0 °F 81% 30.43 in 9.0 mi ENE 5.8 mph - N/A   Clear
11:56 PM 28.9 °F 22.8 °F 23.0 °F 78% 30.41 in 8.0 mi ENE 5.8 mph - N/A   Clear